Big Bear Station Historical Data
Daily Summary for May 3, 2017 Units:  English    Metric   Both
« Previous Day
Next Day »
Daily Weekly Monthly Yearly Custom
  High: Low: Average:
Temperature: 77.2 °F 41.7 °F 57.9 °F
Dew Point: 46.7 °F 30.7 °F 38.3 °F
Humidity: 81 % 25 % 52 %
Wind Speed: 9.9 mph 0.0 mph 1.6 mph
Wind Gust: -999.0 mph - -
Wind:- - WSW
Pressure: 30.25 in 30.19 in -
Precipitation: 0.00 in    
Historical Graphs
 
 
Tabular Data for May 3, 2017
Time Temperature Dew Point Pressure Wind Wind Speed Wind Gust Humidity Rainfall Rate (Hourly)
00:11 46.4 °F 32.0 °F 30.20 in Calm   -999.0 mph 57 % 0 in
00:26 46.2 °F 32.2 °F 30.20 in Calm   -999.0 mph 58 % 0 in
00:41 45.9 °F 32.0 °F 30.20 in Calm   -999.0 mph 58 % 0 in
00:56 45.5 °F 31.1 °F 30.20 in Calm   -999.0 mph 57 % 0 in
01:11 45.3 °F 31.4 °F 30.20 in Calm   -999.0 mph 58 % 0 in
01:27 45.0 °F 30.7 °F 30.19 in South 1.7 mph -999.0 mph 57 % 0 in
01:42 45.0 °F 32.4 °F 30.19 in Calm   -999.0 mph 61 % 0 in
01:57 44.2 °F 31.2 °F 30.19 in SSE 1.7 mph -999.0 mph 60 % 0 in
02:12 44.2 °F 32.0 °F 30.19 in SSE 1.7 mph -999.0 mph 62 % 0 in
02:28 44.2 °F 33.2 °F 30.19 in Calm   -999.0 mph 65 % 0 in
02:43 43.5 °F 32.9 °F 30.19 in SE 1.1 mph -999.0 mph 66 % 0 in
02:58 43.3 °F 32.7 °F 30.19 in Calm   -999.0 mph 66 % 0 in
03:13 43.2 °F 33.4 °F 30.19 in Calm   -999.0 mph 68 % 0 in
03:28 43.2 °F 34.4 °F 30.19 in Calm   -999.0 mph 71 % 0 in
03:44 43.0 °F 34.2 °F 30.19 in Calm   -999.0 mph 71 % 0 in
03:59 43.0 °F 34.2 °F 30.20 in Calm   -999.0 mph 71 % 0 in
04:14 42.6 °F 33.9 °F 30.19 in Calm   -999.0 mph 71 % 0 in
04:29 42.4 °F 34.7 °F 30.19 in Calm   -999.0 mph 74 % 0 in
04:44 42.3 °F 34.6 °F 30.20 in Calm   -999.0 mph 74 % 0 in
05:00 42.1 °F 34.7 °F 30.20 in Calm   -999.0 mph 75 % 0 in
05:15 42.1 °F 35.7 °F 30.20 in Calm   -999.0 mph 78 % 0 in
05:30 42.1 °F 36.4 °F 30.20 in Calm   -999.0 mph 80 % 0 in
05:45 42.1 °F 36.7 °F 30.20 in Calm   -999.0 mph 81 % 0 in
06:00 41.7 °F 36.3 °F 30.20 in Calm   -999.0 mph 81 % 0 in
06:16 41.7 °F 36.0 °F 30.21 in SSE 1.1 mph -999.0 mph 80 % 0 in
06:31 41.7 °F 35.3 °F 30.22 in Calm   -999.0 mph 78 % 0 in
06:46 42.4 °F 36.4 °F 30.22 in Calm   -999.0 mph 79 % 0 in
07:02 43.3 °F 37.2 °F 30.22 in South 1.1 mph -999.0 mph 79 % 0 in
07:17 43.5 °F 37.7 °F 30.23 in Calm   -999.0 mph 80 % 0 in
07:32 44.2 °F 38.7 °F 30.23 in Calm   -999.0 mph 81 % 0 in
07:47 46.9 °F 40.1 °F 30.23 in Calm   -999.0 mph 77 % 0 in
08:02 49.3 °F 41.0 °F 30.24 in South 1.1 mph -999.0 mph 73 % 0 in
08:18 49.8 °F 41.1 °F 30.23 in Calm   -999.0 mph 72 % 0 in
08:33 51.8 °F 41.6 °F 30.24 in Calm   -999.0 mph 68 % 0 in
08:48 53.2 °F 41.3 °F 30.24 in NW 1.7 mph -999.0 mph 64 % 0 in
09:03 55.8 °F 43.0 °F 30.24 in NNW 2.7 mph -999.0 mph 62 % 0 in
09:18 58.8 °F 40.7 °F 30.24 in Calm   -999.0 mph 51 % 0 in
09:34 62.4 °F 38.4 °F 30.24 in Calm   -999.0 mph 41 % 0 in
09:49 65.3 °F 36.9 °F 30.24 in NW 9.9 mph -999.0 mph 35 % 0 in
10:04 66.2 °F 37.0 °F 30.24 in Calm   -999.0 mph 34 % 0 in
10:19 67.5 °F 37.4 °F 30.24 in SW 3.2 mph -999.0 mph 33 % 0 in
10:35 68.7 °F 36.8 °F 30.24 in NW 1.7 mph -999.0 mph 31 % 0 in
10:50 69.1 °F 36.4 °F 30.24 in NNW 4.2 mph -999.0 mph 30 % 0 in
11:05 71.1 °F 36.3 °F 30.25 in SE 1.1 mph -999.0 mph 28 % 0 in
11:20 71.4 °F 37.5 °F 30.25 in NNW 5.3 mph -999.0 mph 29 % 0 in
11:35 72.1 °F 37.2 °F 30.24 in East 1.7 mph -999.0 mph 28 % 0 in
11:51 73.8 °F 36.8 °F 30.24 in ESE 1.7 mph -999.0 mph 26 % 0 in
12:06 74.3 °F 37.2 °F 30.24 in NW 2.7 mph -999.0 mph 26 % 0 in
12:21 75.7 °F 37.4 °F 30.24 in NNW 2.2 mph -999.0 mph 25 % 0 in
12:36 76.5 °F 39.1 °F 30.24 in NW 5.8 mph -999.0 mph 26 % 0 in
12:52 75.4 °F 37.1 °F 30.24 in NW 5.3 mph -999.0 mph 25 % 0 in
13:07 77.2 °F 38.7 °F 30.23 in NW 3.2 mph -999.0 mph 25 % 0 in
13:22 74.3 °F 38.2 °F 30.23 in WNW 2.2 mph -999.0 mph 27 % 0 in
13:37 75.2 °F 40.8 °F 30.23 in NNW 4.7 mph -999.0 mph 29 % 0 in
13:53 76.5 °F 39.1 °F 30.23 in NW 4.2 mph -999.0 mph 26 % 0 in
14:08 76.1 °F 40.6 °F 30.23 in NNW 3.2 mph -999.0 mph 28 % 0 in
14:23 75.6 °F 42.0 °F 30.23 in NNW 4.2 mph -999.0 mph 30 % 0 in
14:38 72.9 °F 40.5 °F 30.23 in North 3.2 mph -999.0 mph 31 % 0 in
14:54 73.0 °F 42.2 °F 30.23 in North 3.7 mph -999.0 mph 33 % 0 in
15:10 73.0 °F 41.4 °F 30.22 in NNW 4.7 mph -999.0 mph 32 % 0 in
15:25 72.7 °F 41.1 °F 30.22 in WNW 4.2 mph -999.0 mph 32 % 0 in
15:40 74.5 °F 41.9 °F 30.22 in North 2.7 mph -999.0 mph 31 % 0 in
15:56 74.7 °F 43.7 °F 30.21 in NW 3.7 mph -999.0 mph 33 % 0 in
16:11 75.0 °F 44.0 °F 30.21 in North 5.8 mph -999.0 mph 33 % 0 in
16:26 75.7 °F 43.8 °F 30.21 in WNW 3.7 mph -999.0 mph 32 % 0 in
16:42 73.9 °F 44.5 °F 30.21 in NW 2.7 mph -999.0 mph 35 % 0 in
16:57 73.0 °F 43.7 °F 30.21 in NE 2.2 mph -999.0 mph 35 % 0 in
17:12 72.0 °F 43.6 °F 30.21 in Calm   -999.0 mph 36 % 0 in
17:28 69.6 °F 42.9 °F 30.21 in South 1.1 mph -999.0 mph 38 % 0 in
17:43 68.9 °F 42.9 °F 30.22 in NNW 1.1 mph -999.0 mph 39 % 0 in
17:58 68.0 °F 43.4 °F 30.22 in NW 2.7 mph -999.0 mph 41 % 0 in
18:13 68.5 °F 43.9 °F 30.22 in Calm   -999.0 mph 41 % 0 in
18:28 72.1 °F 43.7 °F 30.22 in Calm   -999.0 mph 36 % 0 in
18:44 69.1 °F 45.0 °F 30.22 in NW 2.7 mph -999.0 mph 42 % 0 in
18:59 66.4 °F 46.7 °F 30.22 in NW 2.2 mph -999.0 mph 49 % 0 in
19:15 64.8 °F 44.6 °F 30.22 in Calm   -999.0 mph 48 % 0 in
19:30 63.0 °F 44.6 °F 30.22 in Calm   -999.0 mph 51 % 0 in
19:45 60.6 °F 44.3 °F 30.23 in South 2.2 mph -999.0 mph 55 % 0 in
20:00 59.4 °F 40.8 °F 30.23 in South 2.2 mph -999.0 mph 50 % 0 in
20:16 58.3 °F 41.7 °F 30.23 in South 1.7 mph -999.0 mph 54 % 0 in
20:31 57.2 °F 40.2 °F 30.23 in Calm   -999.0 mph 53 % 0 in
20:46 55.6 °F 39.2 °F 30.24 in South 2.2 mph -999.0 mph 54 % 0 in
21:01 54.9 °F 38.1 °F 30.24 in Calm   -999.0 mph 53 % 0 in
21:16 54.0 °F 37.3 °F 30.24 in South 2.2 mph -999.0 mph 53 % 0 in
21:32 53.2 °F 37.0 °F 30.25 in SSE 1.7 mph -999.0 mph 54 % 0 in
21:47 52.5 °F 37.3 °F 30.25 in Calm   -999.0 mph 56 % 0 in
22:02 52.2 °F 37.0 °F 30.25 in Calm   -999.0 mph 56 % 0 in
22:17 51.4 °F 38.4 °F 30.25 in South 1.7 mph -999.0 mph 61 % 0 in
22:32 50.7 °F 39.4 °F 30.25 in Calm   -999.0 mph 65 % 0 in
22:48 50.0 °F 38.7 °F 30.25 in SSE 1.7 mph -999.0 mph 65 % 0 in
23:03 49.5 °F 39.0 °F 30.25 in Calm   -999.0 mph 67 % 0 in
23:18 48.9 °F 38.0 °F 30.25 in Calm   -999.0 mph 66 % 0 in
23:33 48.4 °F 37.2 °F 30.25 in South 1.7 mph -999.0 mph 65 % 0 in
23:48 48.4 °F 37.2 °F 30.25 in South 1.7 mph -999.0 mph 65 % 0 in
Big Bear CA Weather
Compliments of Weather Underground - 1.5 mb